Regional Weather Roundup
Issued by NWS

Home | Current Version | Previous Version | Text Only | Print | Product List | Glossary Off
Versions: 1 2 3 4 5 6 7 8 9 10 11 12 13 14 15 16 17 18 19 20 21 22 23 24 25 26 27 28 29 30 31 32 33 34 35 36 37 38 39 40 41 42 43 44 45 46 47 48 49 50

302
ASUS43 KOAX 230002
RWRNE

WEATHER ROUNDUP FOR NEBRASKA
NATIONAL WEATHER SERVICE OMAHA NE
600 PM CST THU FEB 22 2018

NOTES: SATELLITE DATA IS BEING USED TO AUGMENT CLOUD COVER ABOVE
       12000 FEET.
       "FAIR" INDICATES FEW OR NO CLOUDS BELOW 12,000 FEET WITH NO
       SIGNIFICANT WEATHER AND/OR OBSTRUCTIONS TO VISIBILITY.


NEZ001>004-019>022-054>056-230100-
NEBRASKA PANHANDLE

CITY           SKY/WX    TMP DP  RH WIND       PRES   REMARKS
SCOTTSBLUFF    PTCLDY    24  18  77 S5        30.00S WCI  18
6HR MIN TEMP:  20; 6HR MAX TEMP:  28; 6HR PCP:  0.01;

ALLIANCE       CLOUDY    21  16  81 S7        29.99S WCI  12
6HR MIN TEMP:  19; 6HR MAX TEMP:  22; 6HR PCP: TRACE;

CHADRON        MOCLDY    20  13  74 NW3       30.03S
6HR MIN TEMP:  18; 6HR MAX TEMP:  23; 6HR PCP: TRACE;

GORDON         LGT SNOW  23  19  87 SW3       30.02R
6HR MIN TEMP:  21; 6HR MAX TEMP:  24;

KIMBALL        PTCLDY    21  15  76 CALM      29.97R
SIDNEY         MOCLDY    24  15  68 SW6       30.00R WCI  17
6HR MIN TEMP:  19; 6HR MAX TEMP:  26; 6HR PCP: TRACE;

$$

NEZ057>060-069>072-079>082-230100-
SOUTHWEST NEBRASKA

CITY           SKY/WX    TMP DP  RH WIND       PRES   REMARKS
NORTH PLATTE   CLOUDY    24  16  71 W6        30.10R WCI  17
6HR MIN TEMP:  22; 6HR MAX TEMP:  24; 6HR PCP:  0.01;

IMPERIAL       CLOUDY    23  18  81 E6        30.04F WCI  16
6HR MIN TEMP:  22; 6HR MAX TEMP:  26;

LEXINGTON      CLOUDY    26  21  81 SW7       30.11S WCI  19
MCCOOK         CLOUDY    24  23  96 CALM      30.10S FOG
6HR MIN TEMP:  22; 6HR MAX TEMP:  24; 6HR PCP: TRACE;

OGALLALA       CLOUDY    24  19  80 SE5       30.06S WCI  18
$$

NEZ005>010-023>029-035>040-094-230100-
NORTH CENTRAL NEBRASKA

CITY           SKY/WX    TMP DP  RH WIND       PRES   REMARKS
VALENTINE      CLOUDY    24  18  77 S6        30.08F WCI  17
6HR MIN TEMP:  23; 6HR MAX TEMP:  26; 6HR PCP:  0.05;

AINSWORTH      CLOUDY    22  21  96 S5        30.09S FOG     WCI  15
BROKEN BOW     CLOUDY    23  19  85 S3        30.10R
6HR MIN TEMP:  22; 6HR MAX TEMP:  23; 6HR PCP:  0.14;

O`NEILL        LGT SNOW  22  21  98 SE3       30.13S VSB 1
ORD            CLOUDY    23  20  88 SW3       30.12F FOG
6HR MIN TEMP:  22; 6HR MAX TEMP:  23; 6HR PCP:  0.02;

THEDFORD       CLOUDY    23  20  87 S5        30.08S WCI  17
$$

NEZ041-046>049-061>064-073>077-083>087-230100-
SOUTH CENTRAL NEBRASKA

CITY           SKY/WX    TMP DP  RH WIND       PRES   REMARKS
GRAND ISLAND   CLOUDY    26  23  88 CALM      30.14F FOG
6HR MIN TEMP:  23; 6HR MAX TEMP:  26; 6HR PCP:  0.04;

AURORA         LGT SNOW  27  25  93 CALM      30.14F VSB 3/4
HASTINGS       CLOUDY    26  23  88 CALM      30.13F FOG
6HR MIN TEMP:  24; 6HR MAX TEMP:  26; 6HR PCP:  0.03;

HEBRON         MIX PCPN  30  29  95 CALM      30.16S
HOLDREGE       CLOUDY    25  25 100 SW5       30.11F FOG     WCI  19
KEARNEY        CLOUDY    25  23  92 S6        30.13S WCI  18
YORK           CLOUDY    27  27 100 CALM      30.15F FOG
$$

NEZ011>018-030>034-042>045-230100-
NORTHEAST NEBRASKA

CITY           SKY/WX    TMP DP  RH WIND       PRES   REMARKS
NORFOLK        LGT SNOW  25  23  92 S7        30.15R VSB 1   WCI  17
6HR MIN TEMP:  24; 6HR MAX TEMP:  25; 6HR PCP:  0.02;

ALBION         SNOW      25  23  93 SW3       30.15S VSB 1/2
BLAIR          CLOUDY    30  28  94 CALM      30.15F FOG
COLUMBUS       LGT SNOW  26  23  88 SW3       30.18R VSB 3/4
FREMONT        MIX PCPN  29  28  96 SE3       30.18R
TEKAMAH        CLOUDY    29  27  92 SE7       30.18F WCI  22
6HR MIN TEMP:  26; 6HR MAX TEMP:  29; 6HR PCP:  0.01;

WAYNE          CLOUDY    26  26  96 S6        30.17S FOG     WCI  20
$$

NEZ050>053-065>068-078-088>093-230100-
SOUTHEAST NEBRASKA

CITY           SKY/WX    TMP DP  RH WIND       PRES   REMARKS
LINCOLN        CLOUDY    29  28  96 E3        30.17F FOG
6HR MIN TEMP:  26; 6HR MAX TEMP:  30; 6HR PCP: TRACE;

OMAHA EPPLEY   CLOUDY    31  28  89 SE5       30.18F WCI  26
6HR MIN TEMP:  27; 6HR MAX TEMP:  31; 6HR PCP: TRACE;

BEATRICE       LGT SNOW  32  31  96 S3        30.17R
FALLS CITY     MIX PCPN  31  29  92 SE7       30.18S FOG     WCI  24
6HR MIN TEMP:  29; 6HR MAX TEMP:  31; 6HR PCP: TRACE;

NEBRASKA CITY  MIX PCPN  31  31 100 SE5       30.15F WCI  26
PLATTSMOUTH    CLOUDY    31  30  97 SE6       30.16S WCI  25
$$

NEZ044-045-051>053-067-230100-
OMAHA AREA

CITY           SKY/WX    TMP DP  RH WIND       PRES   REMARKS
OMAHA EPPLEY   CLOUDY    31  28  89 SE5       30.18F WCI  26
6HR MIN TEMP:  27; 6HR MAX TEMP:  31; 6HR PCP: TRACE;

BLAIR          CLOUDY    30  28  94 CALM      30.15F FOG
FREMONT        MIX PCPN  29  28  96 SE3       30.18R
MILLARD        CLOUDY    32  29  90 SE5       30.17F WCI  27
OFFUTT AFB     CLOUDY    31  29  93 E3        30.17F
PLATTSMOUTH    CLOUDY    31  30  97 SE6       30.16S WCI  25
WAHOO          CLOUDY    29  28  94 SE5       30.16F FOG     WCI  24
$$




USA.gov is the U.S. government's official web portal to all federal, state and local government web resources and services.